When you browse on this site, cookies collect data to enhance your experience and personalize the content and advertising you see.
Visit our Privacy Policy to learn more. By continuing to use the site, you agree to this use of cookies and data.
  • In Latvia
  • List of Countries
  • For 7 days
  • Water Temperature
  • Weather Map
  • Weather Widgets
  • user-avatar
    Login

    Hourly Weather Hadera

    Today, 28 May, Thursday

    Time Temperature Precipitation Wind Pressure Humidity
    00:00 +14°C° 0 mm 4 mps 717 mmHg 82%
    01:00 +14°C° 0 mm 4 mps 717 mmHg 82%
    02:00 +14°C° 0 mm 3 mps 717 mmHg 81%
    03:00 +14°C° 0 mm 3 mps 717 mmHg 81%
    04:00 +13°C° 0 mm 3 mps 717 mmHg 81%
    05:00 +13°C° 0 mm 3 mps 717 mmHg 81%
    06:00 +15°C° 0 mm 4 mps 717 mmHg 72%
    07:00 +17°C° 0 mm 4 mps 717 mmHg 63%
    08:00 +19°C° 0 mm 4 mps 718 mmHg 55%
    09:00 +20°C° 0 mm 5 mps 718 mmHg 52%
    10:00 +20°C° 0 mm 5 mps 718 mmHg 49%
    11:00 +21°C° 0 mm 6 mps 719 mmHg 46%
    12:00 +21°C° 0 mm 6 mps 719 mmHg 48%
    13:00 +21°C° 0 mm 6 mps 718 mmHg 51%
    14:00 +20°C° 0 mm 7 mps 718 mmHg 54%
    15:00 +18°C° 0 mm 7 mps 718 mmHg 58%
    16:00 +18°C° 0 mm 7 mps 718 mmHg 63%
    17:00 +17°C° 0 mm 7 mps 717 mmHg 67%
    18:00 +16°C° 0 mm 6 mps 717 mmHg 71%
    19:00 +15°C° 0 mm 6 mps 717 mmHg 75%
    20:00 +14°C° 0 mm 5 mps 717 mmHg 78%
    21:00 +15°C° 0 mm 6 mps 717 mmHg 77%
    22:00 +15°C° 0 mm 6 mps 718 mmHg 75%
    23:00 +15°C° 0 mm 6 mps 718 mmHg 74%

    Tomorrow, 29 May, Friday

    Time Temperature Precipitation Wind Pressure Humidity
    00:00 +14°C° 0 mm 6 mps 717 mmHg 76%
    01:00 +14°C° 0 mm 7 mps 717 mmHg 77%
    02:00 +14°C° 0 mm 7 mps 717 mmHg 79%
    03:00 +14°C° 0.1 mm 7 mps 717 mmHg 79%
    04:00 +13°C° 0.1 mm 8 mps 717 mmHg 80%
    05:00 +13°C° 0.1 mm 9 mps 717 mmHg 80%
    06:00 +15°C° 0 mm 8 mps 717 mmHg 75%
    07:00 +16°C° 0 mm 8 mps 717 mmHg 71%
    08:00 +17°C° 0 mm 7 mps 718 mmHg 66%
    09:00 +18°C° 0 mm 7 mps 718 mmHg 62%
    10:00 +20°C° 0 mm 7 mps 718 mmHg 58%
    11:00 +20°C° 0 mm 8 mps 718 mmHg 54%
    12:00 +21°C° 0 mm 8 mps 718 mmHg 53%
    13:00 +21°C° 0 mm 8 mps 718 mmHg 52%
    14:00 +21°C° 0 mm 8 mps 718 mmHg 51%
    15:00 +20°C° 0 mm 8 mps 718 mmHg 52%
    16:00 +20°C° 0 mm 8 mps 718 mmHg 53%
    17:00 +18°C° 0 mm 8 mps 718 mmHg 55%
    18:00 +17°C° 0 mm 7 mps 718 mmHg 62%
    19:00 +16°C° 0 mm 6 mps 718 mmHg 69%
    20:00 +15°C° 0 mm 6 mps 718 mmHg 76%
    21:00 +15°C° 0 mm 5 mps 718 mmHg 78%
    22:00 +14°C° 0 mm 5 mps 718 mmHg 79%
    23:00 +14°C° 0 mm 5 mps 718 mmHg 81%

    Day after tomorrow, 30 May, Saturday

    Time Temperature Precipitation Wind Pressure Humidity
    00:00 +14°C° 0 mm 4 mps 718 mmHg 82%
    01:00 +14°C° 0 mm 4 mps 718 mmHg 83%
    02:00 +14°C° 0 mm 3 mps 718 mmHg 84%
    03:00 +14°C° 0 mm 3 mps 718 mmHg 85%
    04:00 +13°C° 0 mm 3 mps 718 mmHg 86%
    05:00 +14°C° 0 mm 2 mps 718 mmHg 87%
    06:00 +16°C° 0 mm 3 mps 718 mmHg 79%
    07:00 +17°C° 0 mm 3 mps 719 mmHg 70%
    08:00 +19°C° 0 mm 3 mps 719 mmHg 61%
    09:00 +20°C° 0 mm 3 mps 719 mmHg 57%
    10:00 +21°C° 0 mm 4 mps 720 mmHg 54%
    11:00 +22°C° 0 mm 4 mps 720 mmHg 50%
    12:00 +21°C° 0 mm 4 mps 720 mmHg 50%
    13:00 +21°C° 0 mm 4 mps 720 mmHg 51%
    14:00 +21°C° 0 mm 5 mps 720 mmHg 51%
    15:00 +21°C° 0 mm 4 mps 720 mmHg 52%
    16:00 +20°C° 0 mm 4 mps 719 mmHg 52%
    17:00 +20°C° 0 mm 4 mps 719 mmHg 53%
    18:00 +19°C° 0 mm 4 mps 719 mmHg 61%
    19:00 +17°C° 0 mm 3 mps 719 mmHg 68%
    20:00 +16°C° 0 mm 2 mps 719 mmHg 76%
    21:00 +16°C° 0 mm 2 mps 719 mmHg 77%
    22:00 +15°C° 0 mm 2 mps 719 mmHg 78%
    23:00 +15°C° 0 mm 2 mps 719 mmHg 80%

    31 May, Sunday

    Time Temperature Precipitation Wind Pressure Humidity
    00:00 +15°C° 0 mm 2 mps 719 mmHg 79%
    01:00 +14°C° 0 mm 2 mps 718 mmHg 78%
    02:00 +14°C° 0 mm 2 mps 718 mmHg 77%
    03:00 +14°C° 0 mm 1 mps 718 mmHg 74%
    04:00 +14°C° 0 mm 1 mps 718 mmHg 72%
    05:00 +14°C° 0 mm 1 mps 718 mmHg 69%
    06:00 +16°C° 0 mm 1 mps 718 mmHg 62%
    07:00 +19°C° 0 mm 1 mps 719 mmHg 55%
    08:00 +21°C° 0 mm 1 mps 719 mmHg 48%
    09:00 +21°C° 0 mm 2 mps 719 mmHg 46%
    10:00 +23°C° 0 mm 2 mps 720 mmHg 44%
    11:00 +24°C° 0 mm 3 mps 720 mmHg 42%
    12:00 +24°C° 0 mm 3 mps 719 mmHg 45%
    13:00 +23°C° 0 mm 4 mps 719 mmHg 47%
    14:00 +22°C° 0 mm 4 mps 719 mmHg 50%
    15:00 +22°C° 0 mm 4 mps 718 mmHg 49%
    16:00 +22°C° 0 mm 4 mps 718 mmHg 49%
    17:00 +21°C° 0 mm 5 mps 718 mmHg 48%
    18:00 +20°C° 0 mm 4 mps 717 mmHg 56%
    19:00 +18°C° 0 mm 3 mps 717 mmHg 64%
    20:00 +17°C° 0 mm 3 mps 717 mmHg 72%
    21:00 +16°C° 0 mm 3 mps 717 mmHg 70%
    22:00 +16°C° 0 mm 3 mps 717 mmHg 68%
    23:00 +16°C° 0 mm 3 mps 717 mmHg 66%

    1 June, Monday

    Time Temperature Precipitation Wind Pressure Humidity
    00:00 +16°C° 0 mm 2 mps 717 mmHg 65%
    01:00 +16°C° 0 mm 2 mps 716 mmHg 64%
    02:00 +16°C° 0 mm 2 mps 716 mmHg 63%
    03:00 +16°C° 0 mm 2 mps 716 mmHg 61%
    04:00 +16°C° 0 mm 1 mps 716 mmHg 60%
    05:00 +16°C° 0 mm 1 mps 715 mmHg 58%
    06:00 +18°C° 0 mm 2 mps 716 mmHg 54%
    07:00 +20°C° 0 mm 2 mps 716 mmHg 49%
    08:00 +21°C° 0 mm 3 mps 717 mmHg 45%
    09:00 +22°C° 0 mm 3 mps 717 mmHg 44%
    10:00 +24°C° 0 mm 3 mps 717 mmHg 43%
    11:00 +25°C° 0 mm 3 mps 717 mmHg 42%
    12:00 +25°C° 0 mm 4 mps 717 mmHg 41%
    13:00 +25°C° 0 mm 4 mps 717 mmHg 40%
    14:00 +26°C° 0 mm 4 mps 717 mmHg 40%
    15:00 +25°C° 0 mm 4 mps 716 mmHg 41%
    16:00 +25°C° 0 mm 3 mps 716 mmHg 42%
    17:00 +25°C° 0 mm 3 mps 716 mmHg 43%
    18:00 +23°C° 0 mm 2 mps 716 mmHg 49%
    19:00 +21°C° 0 mm 2 mps 715 mmHg 55%
    20:00 +20°C° 0 mm 1 mps 715 mmHg 61%
    21:00 +20°C° 0 mm 1 mps 715 mmHg 61%
    22:00 +19°C° 0 mm 1 mps 715 mmHg 61%
    23:00 +19°C° 0 mm 1 mps 715 mmHg 61%

    2 June, Tuesday

    Time Temperature Precipitation Wind Pressure Humidity
    00:00 +19°C° 0 mm 1 mps 715 mmHg 60%
    01:00 +19°C° 0 mm 1 mps 714 mmHg 59%
    02:00 +18°C° 0 mm 2 mps 714 mmHg 58%
    03:00 +19°C° 0 mm 1 mps 714 mmHg 59%
    04:00 +19°C° 0 mm 1 mps 714 mmHg 59%
    05:00 +19°C° 0 mm 1 mps 714 mmHg 60%
    06:00 +20°C° 0 mm 1 mps 715 mmHg 55%
    07:00 +21°C° 0 mm 2 mps 715 mmHg 49%
    08:00 +24°C° 0 mm 2 mps 715 mmHg 44%
    09:00 +25°C° 0 mm 2 mps 715 mmHg 41%
    10:00 +26°C° 0 mm 2 mps 715 mmHg 38%
    11:00 +27°C° 0 mm 2 mps 716 mmHg 36%
    12:00 +28°C° 0 mm 3 mps 715 mmHg 34%
    13:00 +29°C° 0 mm 4 mps 715 mmHg 33%
    14:00 +29°C° 0 mm 4 mps 715 mmHg 31%
    15:00 +28°C° 0 mm 4 mps 714 mmHg 34%
    16:00 +28°C° 0 mm 3 mps 714 mmHg 36%
    17:00 +27°C° 0 mm 3 mps 713 mmHg 39%
    18:00 +25°C° 0 mm 2 mps 713 mmHg 47%
    19:00 +23°C° 0 mm 2 mps 713 mmHg 54%
    20:00 +21°C° 0 mm 1 mps 713 mmHg 62%
    21:00 +20°C° 0 mm 1 mps 713 mmHg 63%
    22:00 +20°C° 0 mm 1 mps 713 mmHg 63%
    23:00 +20°C° 0 mm 1 mps 713 mmHg 64%
    Show more